Cancun, Mexico

9:20 PM on May 23, 2018 (GMT +0000)
Cancun International

Weather History for MMUN - July, 2013

Change the Weather History Date:

Friday, July 12, 2013

  Actual Average Record
Temperature  
Mean Temperature 78 °F -  
Max Temperature 86 °F 89 °F 93 °F (2000)
Min Temperature 69 °F 73 °F 66 °F (2000)
Cooling Degree Days 12    
Growing Degree Days 28 (Base 50)    
Moisture  
Dew Point 74 °F    
Average Humidity 87    
Maximum Humidity 100    
Minimum Humidity 70    
Precipitation  
Precipitation 0.00 in - - ()
Sea Level Pressure  
Sea Level Pressure 29.93 in    
Wind  
Wind Speed 3 mph ()    
Max Wind Speed 12 mph    
Max Gust Speed -    
Visibility 6.8 miles    
Events      
Averages and records for this station are not official NWS values.
T = Trace of Precipitation, MM = Missing Value Source: Averaged Metar Reports

Daily Weather History Graph

Daily Weather History Graph

Search for Another Location

Airport or City:

Astronomy

Jul. 12, 2013 Rise Set
Actual Time 6:13 AM CDT 7:32 PM CDT
Civil Twilight 5:49 AM CDT 7:56 PM CDT
Nautical Twilight 5:20 AM CDT 8:25 PM CDT
Astronomical Twilight 4:50 AM CDT 8:56 PM CDT
Moon 9:53 AM CDT (7/12) 10:23 PM CDT (7/12)
Length of Visible Light 14h 07m
Length of Day
13h 18m
Waxing Crescent, 17% of the Moon is Illuminated
Jul 12
Waxing Crescent
Jul 15
First Quarter
Jul 22
Full
Jul 29
Last Quarter
Aug 6
New

Hourly Weather History & Observations

Time (CDT) Temp. Heat Index Dew Point Humidity Pressure Visibility Wind Dir Wind Speed Gust Speed Precip Events Conditions
12:46 AM 73.4 °F - 73.4 °F 100% 29.96 in 7.0 mi NW 4.6 mph - N/A   Scattered Clouds
1:41 AM 73.4 °F - 73.4 °F 100% 29.95 in 7.0 mi Calm Calm - N/A   Scattered Clouds
2:40 AM 73.4 °F - 71.6 °F 94% 29.93 in 7.0 mi NW 2.3 mph - N/A   Scattered Clouds
3:41 AM 71.6 °F - 71.6 °F 100% 29.92 in 6.0 mi NW 3.5 mph - N/A   Scattered Clouds
4:44 AM 71.6 °F - 69.8 °F 94% 29.91 in 6.0 mi WNW 3.5 mph - N/A   Scattered Clouds
5:45 AM 69.8 °F - 69.8 °F 100% 29.92 in 6.0 mi WNW 3.5 mph - N/A   Mostly Cloudy
6:48 AM 71.6 °F - 69.8 °F 94% 29.93 in 6.0 mi NW 4.6 mph - N/A   Scattered Clouds
7:45 AM 73.4 °F - 73.4 °F 100% 29.94 in 6.0 mi NW 2.3 mph - N/A   Scattered Clouds
8:44 AM 80.6 °F 87.1 °F 77.0 °F 89% 29.95 in 6.0 mi NNW 2.3 mph - N/A   Mostly Cloudy
9:44 AM 84.2 °F 92.3 °F 75.2 °F 74% 29.95 in 7.0 mi Calm Calm - N/A   Mostly Cloudy
10:42 AM 86.0 °F 95.1 °F 75.2 °F 70% 29.96 in 7.0 mi ENE 2.3 mph - N/A   Mostly Cloudy
11:42 AM 86.0 °F 95.1 °F 75.2 °F 70% 29.95 in 7.0 mi ESE 11.5 mph - N/A   Mostly Cloudy
12:42 PM 84.2 °F 92.3 °F 75.2 °F 74% 29.95 in 7.0 mi East 4.6 mph - N/A   Mostly Cloudy
1:44 PM 84.2 °F 92.3 °F 75.2 °F 74% 29.93 in 7.0 mi NE 8.1 mph - N/A   Mostly Cloudy
2:40 PM 86.0 °F 96.9 °F 77.0 °F 74% 29.92 in 7.0 mi ENE 8.1 mph - N/A   Mostly Cloudy
3:45 PM 82.4 °F 89.5 °F 75.2 °F 79% 29.91 in 7.0 mi NE 5.8 mph - N/A   Mostly Cloudy
4:44 PM 82.4 °F 90.9 °F 77.0 °F 84% 29.90 in 7.0 mi NNE 2.3 mph - N/A   Mostly Cloudy
5:45 PM 80.6 °F 86.2 °F 75.2 °F 84% 29.90 in 7.0 mi Calm Calm - N/A   Mostly Cloudy
6:42 PM 80.6 °F 86.2 °F 75.2 °F 84% 29.90 in 7.0 mi NE 2.3 mph - N/A   Mostly Cloudy
7:40 PM 80.6 °F 86.2 °F 75.2 °F 84% 29.92 in 7.0 mi NE 2.3 mph - N/A   Mostly Cloudy
8:40 PM 78.8 °F - 75.2 °F 89% 29.93 in 7.0 mi Calm Calm - N/A   Mostly Cloudy
9:48 PM 78.8 °F - 75.2 °F 89% 29.91 in 7.0 mi Calm Calm - N/A   Mostly Cloudy
10:47 PM 78.8 °F - 75.2 °F 89% 29.96 in 7.0 mi North 5.8 mph - N/A   Mostly Cloudy
11:46 PM 77.0 °F - 75.2 °F 94% 29.96 in 7.0 mi NE 5.8 mph - N/A   Mostly Cloudy